When you browse on this site, cookies collect data to enhance your experience and personalize the content and advertising you see.
Visit our Privacy Policy to learn more. By continuing to use the site, you agree to this use of cookies and data.
  • en France
  • Liste des pays
  • À 7 jours
  • Température de l'eau
  • Carte satellitaire
  • Carte météo
  • Widgets météo
  • user-avatar
    Se connecter

    Météo par heure à Kapan

    Ce jour, 25 Avril, Jeudi

    Heure Température Précipitation Vent Pression Humidité
    00:00 +6°C° 0 mm 1 m/s 688 mmHg 63%
    01:00 +6°C° 0.1 mm 1 m/s 688 mmHg 64%
    02:00 +6°C° 0.1 mm 1 m/s 688 mmHg 65%
    03:00 +6°C° 0.1 mm 1 m/s 688 mmHg 66%
    04:00 +6°C° 0.2 mm 1 m/s 689 mmHg 67%
    05:00 +7°C° 0.2 mm 1 m/s 689 mmHg 68%
    06:00 +7°C° 0.2 mm 1 m/s 689 mmHg 68%
    07:00 +8°C° 0.2 mm 1 m/s 689 mmHg 64%
    08:00 +9°C° 0.2 mm 1 m/s 690 mmHg 59%
    09:00 +10°C° 0.2 mm 1 m/s 690 mmHg 55%
    10:00 +10°C° 0.1 mm 2 m/s 690 mmHg 53%
    11:00 +12°C° 0.1 mm 2 m/s 690 mmHg 51%
    12:00 +13°C° 0.1 mm 2 m/s 690 mmHg 49%
    13:00 +12°C° 0 mm 3 m/s 690 mmHg 49%
    14:00 +12°C° 0 mm 3 m/s 689 mmHg 49%
    15:00 +13°C° 0 mm 3 m/s 689 mmHg 49%
    16:00 +13°C° 0 mm 2 m/s 689 mmHg 54%
    17:00 +12°C° 0 mm 2 m/s 689 mmHg 59%
    18:00 +10°C° 0 mm 2 m/s 689 mmHg 64%
    19:00 +8°C° 0 mm 2 m/s 689 mmHg 70%
    20:00 +8°C° 0 mm 1 m/s 689 mmHg 76%
    21:00 +7°C° 0 mm 1 m/s 689 mmHg 82%
    22:00 +7°C° 0 mm 1 m/s 689 mmHg 82%
    23:00 +6°C° 0 mm 1 m/s 689 mmHg 82%

    Demain, 26 Avril, Vendredi

    Heure Température Précipitation Vent Pression Humidité
    00:00 +6°C° 0 mm 1 m/s 689 mmHg 81%
    01:00 +6°C° 0 mm 1 m/s 689 mmHg 79%
    02:00 +6°C° 0 mm 1 m/s 689 mmHg 77%
    03:00 +5°C° 0 mm 1 m/s 689 mmHg 74%
    04:00 +6°C° 0 mm 1 m/s 689 mmHg 72%
    05:00 +6°C° 0 mm 1 m/s 689 mmHg 69%
    06:00 +6°C° 0 mm 1 m/s 689 mmHg 66%
    07:00 +7°C° 0 mm 2 m/s 689 mmHg 61%
    08:00 +9°C° 0 mm 2 m/s 690 mmHg 55%
    09:00 +12°C° 0 mm 2 m/s 690 mmHg 50%
    10:00 +13°C° 0 mm 2 m/s 690 mmHg 48%
    11:00 +14°C° 0 mm 2 m/s 689 mmHg 47%
    12:00 +14°C° 0 mm 3 m/s 689 mmHg 45%
    13:00 +14°C° 0 mm 3 m/s 689 mmHg 45%
    14:00 +14°C° 0 mm 3 m/s 688 mmHg 46%
    15:00 +14°C° 0 mm 3 m/s 688 mmHg 46%
    16:00 +14°C° 0 mm 2 m/s 687 mmHg 50%
    17:00 +13°C° 0 mm 2 m/s 687 mmHg 54%
    18:00 +12°C° 0 mm 2 m/s 687 mmHg 59%
    19:00 +9°C° 0 mm 2 m/s 687 mmHg 63%
    20:00 +9°C° 0 mm 1 m/s 687 mmHg 67%
    21:00 +7°C° 0 mm 1 m/s 687 mmHg 71%
    22:00 +7°C° 0 mm 1 m/s 687 mmHg 71%
    23:00 +7°C° 0 mm 1 m/s 687 mmHg 71%

    Après-demain, 27 Avril, Samedi

    Heure Température Précipitation Vent Pression Humidité
    00:00 +6°C° 0 mm 2 m/s 687 mmHg 71%
    01:00 +6°C° 0 mm 2 m/s 687 mmHg 70%
    02:00 +6°C° 0 mm 2 m/s 687 mmHg 69%
    03:00 +5°C° 0 mm 2 m/s 687 mmHg 67%
    04:00 +6°C° 0 mm 2 m/s 687 mmHg 65%
    05:00 +7°C° 0 mm 1 m/s 687 mmHg 62%
    06:00 +8°C° 0 mm 1 m/s 687 mmHg 60%
    07:00 +10°C° 0 mm 1 m/s 687 mmHg 53%
    08:00 +12°C° 0 mm 2 m/s 688 mmHg 46%
    09:00 +14°C° 0 mm 2 m/s 688 mmHg 39%
    10:00 +15°C° 0 mm 2 m/s 688 mmHg 39%
    11:00 +16°C° 0 mm 2 m/s 688 mmHg 38%
    12:00 +17°C° 0 mm 3 m/s 687 mmHg 37%
    13:00 +17°C° 0 mm 3 m/s 687 mmHg 39%
    14:00 +17°C° 0 mm 3 m/s 686 mmHg 40%
    15:00 +18°C° 0 mm 3 m/s 686 mmHg 41%
    16:00 +16°C° 0 mm 3 m/s 686 mmHg 48%
    17:00 +15°C° 0 mm 2 m/s 685 mmHg 55%
    18:00 +14°C° 0 mm 2 m/s 685 mmHg 62%
    19:00 +12°C° 0 mm 1 m/s 685 mmHg 68%
    20:00 +11°C° 0 mm 1 m/s 685 mmHg 73%
    21:00 +10°C° 0 mm 1 m/s 685 mmHg 78%
    22:00 +10°C° 0 mm 1 m/s 685 mmHg 74%
    23:00 +10°C° 0 mm 1 m/s 685 mmHg 70%

    28 Avril, Dimanche

    Heure Température Précipitation Vent Pression Humidité
    00:00 +8°C° 0 mm 2 m/s 684 mmHg 66%
    01:00 +8°C° 0 mm 2 m/s 684 mmHg 63%
    02:00 +8°C° 0 mm 2 m/s 684 mmHg 59%
    03:00 +8°C° 0 mm 2 m/s 684 mmHg 55%
    04:00 +9°C° 0 mm 2 m/s 684 mmHg 53%
    05:00 +9°C° 0 mm 2 m/s 684 mmHg 52%
    06:00 +10°C° 0 mm 2 m/s 684 mmHg 50%
    07:00 +13°C° 0 mm 2 m/s 684 mmHg 45%
    08:00 +15°C° 0 mm 2 m/s 685 mmHg 41%
    09:00 +18°C° 0 mm 2 m/s 685 mmHg 37%
    10:00 +19°C° 0 mm 2 m/s 685 mmHg 35%
    11:00 +20°C° 0 mm 2 m/s 684 mmHg 33%
    12:00 +21°C° 0 mm 3 m/s 684 mmHg 32%
    13:00 +21°C° 0 mm 2 m/s 684 mmHg 31%
    14:00 +21°C° 0 mm 2 m/s 683 mmHg 31%
    15:00 +21°C° 0 mm 2 m/s 683 mmHg 31%
    16:00 +20°C° 0 mm 2 m/s 683 mmHg 38%
    17:00 +19°C° 0 mm 2 m/s 682 mmHg 44%
    18:00 +18°C° 0 mm 1 m/s 682 mmHg 51%
    19:00 +16°C° 0 mm 2 m/s 682 mmHg 53%
    20:00 +14°C° 0 mm 2 m/s 682 mmHg 55%
    21:00 +13°C° 0 mm 2 m/s 683 mmHg 57%
    22:00 +13°C° 0 mm 2 m/s 683 mmHg 54%
    23:00 +13°C° 0 mm 2 m/s 683 mmHg 51%

    29 Avril, Lundi

    Heure Température Précipitation Vent Pression Humidité
    00:00 +12°C° 0 mm 3 m/s 683 mmHg 48%
    01:00 +11°C° 0 mm 3 m/s 683 mmHg 49%
    02:00 +11°C° 0 mm 3 m/s 683 mmHg 50%
    03:00 +11°C° 0 mm 3 m/s 683 mmHg 51%
    04:00 +12°C° 0 mm 3 m/s 683 mmHg 53%
    05:00 +12°C° 0 mm 3 m/s 683 mmHg 54%
    06:00 +13°C° 0 mm 2 m/s 683 mmHg 55%
    07:00 +16°C° 0 mm 2 m/s 684 mmHg 51%
    08:00 +18°C° 0 mm 2 m/s 684 mmHg 46%
    09:00 +20°C° 0 mm 2 m/s 685 mmHg 41%
    10:00 +21°C° 0.1 mm 2 m/s 684 mmHg 39%
    11:00 +22°C° 0.1 mm 3 m/s 684 mmHg 38%
    12:00 +24°C° 0.1 mm 3 m/s 684 mmHg 36%
    13:00 +24°C° 0.2 mm 3 m/s 683 mmHg 35%
    14:00 +24°C° 0.2 mm 3 m/s 683 mmHg 35%
    15:00 +24°C° 0.2 mm 3 m/s 683 mmHg 34%
    16:00 +23°C° 0.3 mm 2 m/s 682 mmHg 41%
    17:00 +20°C° 0.3 mm 2 m/s 682 mmHg 49%
    18:00 +19°C° 0.3 mm 1 m/s 682 mmHg 56%
    19:00 +18°C° 0.2 mm 1 m/s 682 mmHg 59%
    20:00 +16°C° 0.2 mm 1 m/s 682 mmHg 62%
    21:00 +15°C° 0.2 mm 1 m/s 682 mmHg 66%
    22:00 +15°C° 0.1 mm 1 m/s 682 mmHg 64%
    23:00 +15°C° 0.1 mm 2 m/s 682 mmHg 62%

    30 Avril, Mardi

    Heure Température Précipitation Vent Pression Humidité
    00:00 +15°C° 0.1 mm 2 m/s 682 mmHg 61%
    01:00 +14°C° 0 mm 2 m/s 682 mmHg 60%
    02:00 +14°C° 0 mm 2 m/s 682 mmHg 58%
    03:00 +12°C° 0 mm 3 m/s 682 mmHg 57%
    04:00 +14°C° 0 mm 2 m/s 682 mmHg 57%
    05:00 +14°C° 0 mm 2 m/s 683 mmHg 57%
    06:00 +15°C° 0 mm 2 m/s 683 mmHg 57%
    07:00 +16°C° 0 mm 2 m/s 684 mmHg 53%
    08:00 +18°C° 0 mm 2 m/s 684 mmHg 48%
    09:00 +20°C° 0 mm 3 m/s 684 mmHg 43%
    10:00 +21°C° 0 mm 3 m/s 684 mmHg 40%
    11:00 +22°C° 0 mm 3 m/s 684 mmHg 37%
    12:00 +24°C° 0 mm 3 m/s 684 mmHg 34%
    13:00 +24°C° 0 mm 3 m/s 684 mmHg 34%
    14:00 +24°C° 0 mm 3 m/s 683 mmHg 34%
    15:00 +24°C° 0 mm 3 m/s 683 mmHg 33%
    16:00 +23°C° 0 mm 2 m/s 683 mmHg 42%
    17:00 +20°C° 0 mm 2 m/s 683 mmHg 51%
    18:00 +19°C° 0 mm 2 m/s 682 mmHg 60%
    19:00 +17°C° 0.1 mm 2 m/s 683 mmHg 66%
    20:00 +16°C° 0.1 mm 1 m/s 683 mmHg 72%
    21:00 +14°C° 0.1 mm 1 m/s 683 mmHg 77%
    22:00 +14°C° 0.1 mm 1 m/s 683 mmHg 74%
    23:00 +14°C° 0.1 mm 1 m/s 683 mmHg 71%
    Voir plus